EGFFEGHI

Guest
Details From EGFF - Cardiff
To EGHI - Southampton
Flight Number -
Tags generated
Created
Modified
Stats Distance 80 nm / 147 km
Max Altitude 4,800 ft / 1,463 m
Waypoints 3
Social Downloads 1
Likes 0
Share VATSIM

Download

Looking for another format? Having issues loading an existing format? Contact us
Advertisement - Login to hide

Notes

Basic altitude profile: - Ascent Rate: 2500ft/min - Ascent Speed: 250kts - Cruise Altitude: 3000ft - Cruise Speed: 300kts - Descent Rate: 1500ft/min - Descent Speed: 250kts Options: - Use NATs: yes - Use PACOTS: yes - Use low airways: yes - Use high airways: yes

Route

EGFF LAMAT EGHI

ID Type Via Altitude (ft/m) Position (lat/lon) Dist (leg/tot) Name
O EGFF APT - 0 / 0 51.39656 / -3.34320 - / 0 nm Cardiff
LAMAT FIX - 4,800 / 1,463 51.30194 / -3.01750 13 / 13 nm
O EGHI APT - 0 / 0 50.95026 / -1.35681 66 / 79 nm Southampton

Altitude Profile

Advertisement - Login to hide

EGFF

Details ICAO EGFF (CWL)
Name Cardiff
Region United Kingdom
Timezone Europe/London (UTC+0.0)
Stats Elevation 220 ft / 67 m (AMSL)
Location 51.396600° -3.343320°
Runways 1
Magnetic Variation 1.428° W

METAR

EGFF 131520Z AUTO 09015KT 9999 SCT024 05/01 Q1014

Decode

TAF

TAF AMD EGFF 131206Z 1312/1412 11017KT 9999 SCT020 TEMPO 1312/1315 12022G32KT BECMG 1321/1324 06007KT

Decode

Departure Runways

ID Width Length Bearing (true/mag) Surface Threshold Overrun Markings Lighting
12 148 ft / 45 m 7,701 ft / 2,347 m 116.82° / 118.25° ASPHALT 712 ft / 217 m 0 ft / 0 m PREC-APP CENTERLINE EDGE THRESHOLD CALVERT REIL-OMNI
30 148 ft / 45 m 7,701 ft / 2,347 m 296.84° / 298.27° ASPHALT 489 ft / 149 m 98 ft / 30 m PREC-APP CENTERLINE EDGE THRESHOLD CALVERT REIL-OMNI

EGHI

Details ICAO EGHI (SOU)
Name Southampton
Region United Kingdom
Timezone Europe/London (UTC+0.0)
Stats Elevation 41 ft / 12 m (AMSL)
Location 50.950300° -1.356790°
Runways 1
Magnetic Variation 0.667° W

METAR

EGHI 131520Z 08008KT 9999 FEW036 04/M02 Q1016

Decode

TAF

Not found

Destination Runways

ID Width Length Bearing (true/mag) Surface Threshold Overrun Markings Lighting
02 121 ft / 37 m 5,651 ft / 1,722 m 19.36° / 20.02° ASPHALT 239 ft / 73 m 66 ft / 20 m UK-PREC-APP CENTERLINE EDGE THRESHOLD MALS
20 121 ft / 37 m 5,651 ft / 1,722 m 199.36° / 200.03° ASPHALT 151 ft / 46 m 0 ft / 0 m UK-PREC-APP CENTERLINE EDGE THRESHOLD MALS

Approach Navaids

Runway Type Ident Frequency Range Bearing (true/mag) Slope Elevation
20 GS ISN 110.75 MHz 18 nm / 33 km 199.35° / 200.02 ° 3.10° 41 ft / 12 m (AMSL)
20 DME ISN 110.75 MHz 18 nm / 33 km - - 54 ft / 16 m (AMSL)
20 LOC-ILS ISN 110.75 MHz 18 nm / 33 km 199.35° / 200.02 ° - 41 ft / 12 m (AMSL)

Popular Alternatives